Flag for Norway Weather past 2 weeks in Haugesund, Norway

Now
61 °F

Passing clouds.


Feels Like: 61 °F
Forecast: 57 / 67 °F
Wind: 12 mph from Northeast

Location: Haugesund / Karmoy

Current Time: Sep 2, 2015 at 11:53:35 PM

Latest Report: Sep 2, 2015 at 10:50 PM


Visibility: N/A

Pressure: 29.56 "Hg

Humidity: 63%

Dew point: 48 °F

Location of HaugesundLocation

Historic Weather in Haugesund — Graph

°F

Haugesund temperature yesterday

Maximum temperature yesterday: 63 °F (at 2:50 PM)
Minimum temperature yesterday: 55 °F (at 6:50 AM)
Average temperature yesterday: 58 °F

Past Weeks' High & Low Weather Summary

 TemperatureHumidityPressure
High77 °F (Aug 19, 3:20 PM)100% (Aug 25, 11:20 PM)30.24 "Hg (Aug 25, 11:20 PM)
Low50 °F (Aug 31, 6:20 AM)34% (Aug 19, 12:20 PM)29.47 "Hg (Aug 26, 12:50 AM)
Average63 °F73%29.89 "Hg
* Reported Aug 18 10:20 PM — Sep 2 10:20 PM, Haugesund, Weather by CustomWeather, © 2015

Note: Actual official high and low records may vary slightly from our data, if they occured in-between our weather recording intervals... More about our weather records

Advertising

Haugesund weather history for previous 24 hours

 ConditionsComfort  
Time TempWeatherWind HumidityBarometerVisibility
10:20 PM
Wed, Sep 2
61 °FClear.9 mph63%29.56 "Hg10 mi
9:50 PM61 °FPassing clouds.8 mph63%29.53 "HgN/A
9:20 PM61 °FSunny.10 mph63%29.53 "Hg10 mi
8:50 PM61 °FScattered clouds.15 mph63%29.53 "HgN/A
8:20 PM61 °FScattered clouds.14 mph63%29.53 "HgN/A
7:50 PM63 °FSunny.14 mph59%29.50 "Hg10 mi
7:20 PM63 °FScattered clouds.17 mph59%29.50 "HgN/A
6:50 PM63 °FScattered clouds.14 mph59%29.50 "HgN/A
6:20 PM64 °FPartly sunny.16 mph56%29.50 "HgN/A
5:50 PM64 °FPartly sunny.14 mph64%29.50 "HgN/A
5:20 PM63 °FPartly sunny.14 mph68%29.50 "HgN/A
4:50 PM61 °FLight rain. Broken clouds.17 mph72%29.50 "HgN/A
4:20 PM63 °FBroken clouds.16 mph68%29.50 "HgN/A
3:50 PM61 °FLight rain. Broken clouds.15 mph77%29.50 "HgN/A
3:20 PM61 °FLight rain. Broken clouds.16 mph72%29.50 "HgN/A
2:50 PM64 °FLight rain. Partly sunny.22 mph56%29.50 "HgN/A
2:20 PM61 °FSunny.24 mph72%29.50 "Hg10 mi
1:50 PM63 °FSunny.22 mph68%29.50 "Hg10 mi
1:20 PM61 °FSunny.22 mph72%29.50 "Hg10 mi
12:50 PM59 °FPartly sunny.23 mph77%29.53 "HgN/A
12:20 PM59 °FBroken clouds.23 mph77%29.53 "HgN/A
11:50 AM57 °FBroken clouds.26 mph82%29.53 "HgN/A
11:20 AM55 °FPartly sunny.26 mph88%29.53 "HgN/A
10:50 AM55 °FLight rain. Broken clouds.26 mph88%29.53 "HgN/A
10:20 AM55 °FRain. Broken clouds.28 mph88%29.56 "Hg5 mi
9:50 AM55 °FLight rain. Broken clouds.25 mph88%29.56 "HgN/A
9:20 AM55 °FLight rain. Broken clouds.22 mph88%29.56 "HgN/A
8:50 AM55 °FLight rain. Broken clouds.24 mph88%29.56 "HgN/A
8:20 AM55 °FLight rain. Broken clouds.22 mph88%29.59 "HgN/A
7:50 AM54 °FLight rain. Partly sunny.22 mph88%29.59 "HgN/A
7:20 AM54 °FLight rain. Passing clouds.22 mph88%29.62 "HgN/A
6:50 AM54 °FLight rain. Passing clouds.22 mph88%29.62 "HgN/A
5:50 AM54 °FLight rain. Passing clouds.21 mph94%29.65 "HgN/A
5:20 AM54 °FLight rain. Overcast.20 mph94%29.65 "HgN/A
4:50 AM55 °FLight rain. Overcast.22 mph88%29.65 "HgN/A
4:20 AM55 °FLight rain. Overcast.21 mph88%29.68 "HgN/A
3:50 AM55 °FLight rain. Mostly cloudy.22 mph88%29.68 "HgN/A
3:20 AM55 °FLight rain. Mostly cloudy.18 mph88%29.68 "HgN/A
2:50 AM57 °FPassing clouds.16 mph82%29.68 "HgN/A
2:20 AM57 °FPassing clouds.18 mph82%29.71 "HgN/A
1:50 AM55 °FLight rain. Passing clouds.18 mph88%29.71 "HgN/A
1:20 AM57 °FLight rain. Passing clouds.20 mph82%29.71 "HgN/A
12:50 AM55 °FPassing clouds.21 mph88%29.74 "HgN/A
11:20 PM
Tue, Sep 1
55 °FLight rain. Mostly cloudy.17 mph88%29.74 "HgN/A
Weather by CustomWeather, © 2015

See weather overviewHow to use our weather pages